Location: *
(46.1866°S, 178.5290°W)
Time: 07:57:51
(UTC+00:00)

Cosmos 1461 - Pass Details

Date: 30 September 2021
Orbit: 520 x 642 km, 65.0° (Epoch: 20 October)

Event Time Altitude Azimuth Distance (km) Brightness Sun altitude
Rises 15:53:49 0° 212° (SSW) 2,926 6.4 -16.3°
Reaches altitude 10° 15:56:12 10° 205° (SSW) 2,031 5.7 -15.9°
Maximum altitude 16:00:34 40° 134° (SE) 948 4.5 -15.2°
Drops below altitude 10° 16:04:59 10° 63° (ENE) 2,050 6.3 -14.5°
Sets 16:07:24 0° 56° (NE) 2,957 7.1 -14.1°
